Timeline UpdatesTrip UpdatesNews PostsPvt PostsTravel TipsAdmin PostsConv PostsFollowed PostsChat RequestsBlog PostsPNR Posts

Disclaimer
Search
 
 
Wed Sep 3, 2014 00:25:41 ISTHomeTrainsΣChainsAtlasPNRForumGalleryNewsFAQTripsMembersLoginFeedback
No Recent News for this Train
Other Trains in the News **new
Latest...
..
Tue Aug 26, 2014 (08:50PM)
⇐ Return Journey: Train# 13133

13134/Varanasi - Sealdah (Upper India) Express

Time-Table HAS CHANGED.
Sep 01 (9:39PM)
Change Departure Station:
Change Arrival Station:
Post a Train Travel TipPost a Train Travel Tip **new
Post a Comment/Question/Picture/VideoPost a Comment/Question/Picture/Video
Pantry/Catering
✕ NO Pantry Car
✕ NO Catering
RSA - Rake Sharing
13119/13120 Sealdah - Old Delhi Express
Rake/Coach Composition
LOCO-SLR-GS-GS-S4-S3-S2-S1-B1-GS-GS-GS-GS-GS-GS-SLR
Loco
BWN WDM-3A
News    PNR    Forum    Time-Table    Availability    Fare Chart    Map    Arr/Dep History    Trips    Gallery    ΣChains    X/O    Timeline    
Travel Time: 8h 20m    25 halts    Distance: 252 km    Avg Speed: 30 km/hr
Type: Mail/Express
Zone: ER/Eastern
Departs @ 08:40
Platform# 4
 MT TFS
Varanasi Junction/BSB 
Arrives @ 17:00
Platform# ???
 MT TFS
Hardas Bigha/HDE 

25 halts. 58 intermediate Stations between Varanasi Junction and Hardas Bigha

Show ALL intermediate Stations  Show Old Time-Table

#CodeStation NameX/OArrivesAvgDepartsAvgHaltPFDay#KmSpeedElevZoneAddress
1BSB»Varanasi Junction (9)»  -08:40-410.01882mNRVaranasi 221002, Uttar Pradesh
2MGSMughal Sarai Junction (8)X  09:35-09:50-15m--116.44283mECRMughalsarai 232101, Uttar Pradesh
3SLDSakaldiha (2)  10:16-10:18-2m--134.68781mECRState Highway 69, Uttar Pradesh
4ZNAZamania (2)X  10:36-10:38-2m--160.75177mECRGhazipur, Uttar Pradesh
5DLNDildarnagar Junction (2)  10:52 10:54-10:57 10:59-5m--174.17972mECRDildarnagar, Uttar Pradesh
6BWHBhadaura (2)  11:10 11:05-11:12 11:07-2m--182.06169mECRGhazipur, Uttar Pradesh
7GMRGahmar (2)  11:22 11:15-11:24 11:17-2m--190.26268mECRDistt: Ghazipur, Uttar Pradesh
8CSAChausa (2)X  11:32 11:26-11:34 11:28-2m--199.43068mECRState Highway 14, Bihar
9BXRBuxar (3)X  11:49 11:50-11:53 11:52-4 2m11110.39867mECRBuxar, Bihar
10DUREDumraon (3)  12:02-12:04-2m--1126.76070mECRDumraon, Bihar
11RPRRaghunathpur (4)  12:18 12:20-12:20 12:22-2m--1142.68869mECRRaghunathpur, Bihar
12BYNBanahi (2)X  12:28-12:30-2m--1151.55167mECRBanahi, Bihar
13BEABihiya (3)X  12:37-12:39-2m--1157.47767mECRBehea, Bihar
14KRSKarisath (2)X  12:48-12:50-2m--1168.96065mECRKarisath, Bihar
15ARAAra Junction (3)  13:00-13:05-5m--1178.85863mECRarrah( 06182-233411), Bihar
16KWRKoelwar (2)  13:19-13:21-2m--1192.33165mECRNational Highway 30, Bihar
17BTABihta (2)X  13:38-13:40-2m--1201.04262mECRDistt: Patna, Bihar
18SDESadisopur (2)  13:46-13:48-2m--1205.36164mECRSadisopur, Bihar
19NEONeora (2)XO  13:55-13:57-2m--1212.3761mECRNational Highway 98, Bihar
20DNRDanapur (5)XO  14:50-15:00-10m--1218.45158mECRKhagaul, Bihar
21PWSPhulwari Sharif (3)X  15:04-15:06-2m--1221.8958mECRPatna, Bihar
22PNBEPatna Junction (10)X  15:45-15:55 16:05-10 20m11227.82257mECRPatna 800001, Bihar
23RJPBRajendra Nagar Bihar (4)O  16:02 16:12-16:04 16:14-2m--1230.45155mECRPatna 800001, Bihar
24GZHGulzarbagh (3)XO  16:09 16:19-16:11 16:21-2m--1234.62055mECRPatna, Bihar
25PNCPatna Saheb (3)X  16:20 16:30-16:22 16:32-2m--1237.73559mECRPatna, Bihar
26FUTFatwa (6)  16:35 16:53-16:37 16:55-2m--1249.92853mECRPatna, Bihar
27HDE•Hardas Bigha•  16:42 17:00-16:44 17:02-2m--1252.27453mECRFatwah, Bihar
28KOOKhusropur (2)  16:49 17:07-16:51 17:09-2m--1258.37152mECRPatna, Bihar
29KWOKarauta (2)X  17:16-17:18-2m--1266.63254mECRKarauta, Bihar
30BKPBakhtiyarpur Junction (5)X  17:30-17:32-2m--1272.99151mECRPatna, Bihar
31ATLAthmal Gola (2)  17:38-17:40-2m--1282.06952mECRPatna, Bihar
32BARHBarh (3)  17:48-17:50-2m--1291.16249mECRBarh, Bihar
33PHKPunarakh (2)XO  18:00-18:02-2m--1301.51051mECRPunarakh, Bihar
34MORMor (2)X  18:51-18:53-2m--1309.83646mECRMor, Bihar
35MKAMokama Junction (4)  19:05-19:10-5m--1317.06348mECRPatna, Bihar
36HTZHathidah Junction (2)X  19:18-19:20-2m11325.44350mECRMusahari, Bihar
37BRYABarhiya (3)X  19:33-19:35-2m--1334.87047mECRBarahiya, Bihar
38LKRLuckeesarai Junction (2)XO  19:48-19:50-2m--1349.9152mECRLakhisarai, Bihar
39KIULKiul Junction (5)  20:45-20:55-10m51351.25953mECRDist. Lakhisarai, Bihar
40KJHKajra (2)  21:11-21:13-2m--1367.04950mERLakhisarai District, Bihar
41AHAAbhaipur (2)  21:22-21:24-2m--1374.25552mERAbhaipur, Bihar
42DRHDharhara (2)  21:35-21:37-2m--1384.33155mERDharhara, Bihar
43JMPJamalpur Junction (4)  22:00-22:10-10m--1396.14759mERJamalpur 06344-243101, Bihar
44RPURRatanpur (2)  22:18-22:20-2m--1402.44246mERRatanpur Railway Station, Bihar
45BUPBariarpur (3)  22:27-22:29-2m--1407.25442mERMunger, Bihar
46SGGSultanGanj (3)  22:49-22:51-2m--1425.14642mERSultanganj, Bihar
47AKNAkbarnagar (3)  23:04-23:06-2m--1435.23839mERTilakpur, Bihar
48NATNathnagar (2)  23:22-23:24-2m--1445.41848mERBhagalpur, Bihar
49BGPBhagalpur Junction (6)X  23:40-23:55-15m21450.15749mERBhagalpur, Bihar
50SBOSabaur (3)X  00:03-00:05-2m--2457.65042mERSabour, Bihar
51GGAGhoga (2)  00:20-00:22-2m--2470.14942mERGhoga, Bihar
52EKCEkchari (1)  00:29-00:31-2m12475.82037mERNational Highway 80, Bihar
53CLGKahalgaon (2)X  00:44-00:46-2m12480.23444mERBhagalpur, Bihar
54SVRPShivanarayanpur (2)  01:12 01:06-01:14 01:08-2m--2491.64847mERShivanarayanpur, Bihar
55PPTPirpainti (2)  01:25 01:19-01:27 01:21-2m--2500.55653mERBhagalpur, Bihar
56MZCMirza Cheuki (3)  01:36 01:30-01:38 01:32-2m32509.03538mERBihar, Bihar
57SBGSahibganj Junction (3)  02:03 01:58-02:13 02:08-10m12524.15038mERSahibganj, Jharkhand
58TLJTaljhari  02:44 02:42-02:46 02:44-2m--2552.22638mERTaljhari, Jharkhand
59TPHTinpahar Junction (3)  03:03 03:06-03:05 03:08-2m22561.83145mERBamangawan, Jharkhand
60BHWBarharwa Junction (3)  03:40-03:45-5m22578.56536mERBarharwa, Jharkhand
61KLPKotalpukur (3)X  03:58-04:00-2m12592.66540mERKotalpukur, Jharkhand
62PKRPakur (2)  04:11-04:13-2m22604.64237mERDist:- Pakur, Jharkhand
63RJGRajgram (3)  04:28-04:30-2m22615.14132mERDist - Birbhum, West Bengal
64MRRMurarai (3)  04:47-04:49-2m22626.85736mERDist - Birbhum, West Bengal
65CTRChatra (3)X  04:57-04:59-2m22634.44742mERDist - Birbhum, West Bengal
66NHTNalhati Junction (4)  05:10-05:12-2m22643.02348mERDist - Birbhum, West Bengal
67RPHRampurhat (3)X  05:48-06:03-15m12657.16841mERDIST - Birbhum, West Bengal
68MLVMallarpur (3)  06:14-06:16-2m--2669.54946mERDist - Birbhum, West Bengal
69SNTSainthia Junction (4)X  06:35-06:37-2m42685.18058mERDist - Birbhum, West Bengal
70AMPAhmadpur Junction (3)  06:47-06:49-2m22698.36546mERDist - Birbhum, West Bengal
71PNEPrantik (3)  07:03-07:05-2m22713.63248mERDist - Birbhum, West Bengal
72BHPBolpur Shantiniketan (3)  07:13-07:18-5m22717.87159mERDist - Birbhum, West Bengal
73GKHGuskara (2)X  07:34-07:36-2m12736.73541mERDist - Bardhaman, West Bengal
74BWNBarddhaman Junction (8)XO  08:32-08:56-24m--2769.67034mERDist - Barddhaman, West Bengal
75DAKEDakhineswar (2)  10:12-10:14-2m22858.22310mERDist - 24 paraganas ( North ), West Bengal
76BNXRBidhan Nagar Road (4)  10:38-10:40-2m42867.6138mERKolkata, West Bengal
77SDAHKolkata Sealdah (20)  10:55--92870.9-8mERPh : 033-23503535 (For North: APC Roy Road) Kolkata 700014, West Bengal
Scroll to Top
Scroll to Bottom